Change the Weather History Date:

Thursday, May 9, 2013

  Actual Average Record
Temperature  
Mean Temperature 58 °F -  
Max Temperature 71 °F 66 °F 89 °F (1989)
Min Temperature 45 °F 38 °F 26 °F (1986)
Degree Days  
Heating Degree Days 8    
Growing Degree Days 8 (Base 50)    
Moisture  
Dew Point 34 °F    
Average Humidity 49    
Maximum Humidity 86    
Minimum Humidity 16    
Precipitation  
Precipitation 0.00 in - - ()
Sea Level Pressure  
Sea Level Pressure 30.04 in    
Wind  
Wind Speed 8 mph (NE)    
Max Wind Speed 23 mph    
Max Gust Speed 33 mph    
Visibility 10 miles    
Events      
Averages and records for this station are not official NWS values.
T = Trace of Precipitation, MM = Missing Value Source: NWS Daily Summary

Daily Weather History Graph

Daily Weather History Graph

Search for Another Location

Airport or City:

Trip Planner

Search our weather history database for the weather conditions in past years. The results will help you decide how hot, cold, wet, or windy it might be!

Date:

Astronomy

May. 09, 2013 Rise Set
Actual Time 6:14 AM MDT 8:25 PM MDT
Civil Twilight 5:44 AM MDT 8:55 PM MDT
Nautical Twilight 5:07 AM MDT 9:31 PM MDT
Astronomical Twilight 4:27 AM MDT 10:12 PM MDT
Moon 6:00 AM MDT (5/9) 8:23 PM MDT (5/9)
Length of Visible Light 15h 10m
Length of Day
14h 10m
Waning Crescent, 0% of the Moon is Illuminated
May 9
Waning Crescent
May 9
New
May 17
First Quarter
May 24
Full
May 31
Last Quarter

Hourly Weather History & Observations

Time (MDT) Temp. Windchill Dew Point Humidity Pressure Visibility Wind Dir Wind Speed Gust Speed Precip Events Conditions
12:53 AM 46.0 °F 43.1 °F 42.1 °F 86% 30.05 in 10.0 mi ENE 5.8 mph - N/A   Mostly Cloudy
1:53 AM 45.0 °F - 39.9 °F 82% 30.06 in 10.0 mi Calm Calm - N/A   Mostly Cloudy
2:53 AM 45.0 °F 43.5 °F 39.9 °F 82% 30.05 in 10.0 mi NW 3.5 mph - N/A   Overcast
3:53 AM 46.0 °F 44.8 °F 39.0 °F 76% 30.02 in 10.0 mi NW 3.5 mph - N/A   Partly Cloudy
4:53 AM 46.9 °F - 39.0 °F 74% 30.01 in 10.0 mi North 5.8 mph - N/A   Scattered Clouds
5:53 AM 46.9 °F - 39.0 °F 74% 30.03 in 10.0 mi North 6.9 mph - N/A   Scattered Clouds
6:53 AM 48.0 °F - 39.9 °F 74% 30.03 in 10.0 mi North 5.8 mph - N/A   Mostly Cloudy
7:53 AM 50.0 °F - 39.9 °F 68% 30.06 in 10.0 mi North 4.6 mph - N/A   Scattered Clouds
8:53 AM 54.0 °F - 36.0 °F 51% 30.06 in 10.0 mi ENE 16.1 mph 21.9 mph N/A   Clear
9:53 AM 55.9 °F - 37.0 °F 49% 30.06 in 10.0 mi NE 15.0 mph - N/A   Clear
10:53 AM 60.8 °F - 35.6 °F 39% 30.13 in 10.0 mi ENE 13.8 mph 19.6 mph N/A   Clear
11:53 AM 62.1 °F - 33.1 °F 34% 30.04 in 10.0 mi NE 20.7 mph 28.8 mph N/A   Partly Cloudy
12:53 PM 64.0 °F - 28.9 °F 27% 30.04 in 10.0 mi NE 23.0 mph 33.4 mph N/A   Clear
1:53 PM 64.4 °F - 28.4 °F 26% 30.13 in 10.0 mi ENE 16.1 mph 20.7 mph N/A   Clear
2:53 PM 66.9 °F - 28.9 °F 24% 30.01 in 10.0 mi ENE 13.8 mph 23.0 mph N/A   Clear
3:53 PM 68.0 °F - 28.0 °F 22% 29.99 in 10.0 mi East 10.4 mph 21.9 mph N/A   Partly Cloudy
4:53 PM 70.0 °F - 25.0 °F 18% 29.96 in 10.0 mi NE 11.5 mph 17.3 mph N/A   Partly Cloudy
5:53 PM 69.1 °F - 24.1 °F 18% 29.96 in 10.0 mi ESE 6.9 mph - N/A   Partly Cloudy
6:53 PM 68.0 °F - 19.9 °F 16% 29.96 in 10.0 mi ENE 9.2 mph - N/A   Partly Cloudy
7:53 PM 64.0 °F - 30.9 °F 29% 29.98 in 10.0 mi East 5.8 mph - N/A   Clear
8:53 PM 57.9 °F - 37.9 °F 47% 30.02 in 10.0 mi ENE 6.9 mph - N/A   Clear
9:53 PM 55.9 °F - 36.0 °F 47% 30.05 in 10.0 mi ENE 8.1 mph - N/A   Clear
11:53 PM 50.0 °F - 37.4 °F 62% 30.17 in 10.0 mi NNE 9.2 mph - N/A   Scattered Clouds